Location: �terpigny
(49.8910°N, 2.9249°E)
Time: 16:19:46
(UTC+00:00)

EO-88 - Pass Details

Date: 01 July 2022
Orbit: 453 x 461 km, 97.3° (Epoch: 14 August)

Event Time Altitude Azimuth Distance (km) Brightness Sun altitude
Exits shadow 21:55:56 - 207° (SSW) 1,796 ? -12.6°
Reaches altitude 10° 21:56:26 10° 211° (SSW) 1,626 ? -12.7°
Maximum altitude 21:59:17 23° 266° (W) 1,039 ? -12.9°
Drops below altitude 10° 22:02:09 10° 321° (NW) 1,636 ? -13.1°
Sets 22:04:31 0° 336° (NNW) 2,517 ? -13.2°
